Starlink 5769

operational
NORAD ID: 55585 Int'l Des: 2023-020 Owner: SPXS Country: US Constellation: starlink
LEOCIRCULAR

Über Starlink 5769

Beschreibung wird geladen...

Live-Position

3D-Globus wird geladen...

Nächste Überflüge

Höhenverlauf

Altitude vs Time

uPlot chart will show altitude changes over time

Zweizeiliger Elementsatz

1 55585U 23020S 25306.44410419 .00000581 00000-0 58090-4 0 9998
2 55585 43.0035 323.4955 0001172 262.7173 97.3536 15.02534387149921
Epoch: 2. Nov. 2025 • Age: 16 hours

Aktueller Status

Höhe 562.2 km
Geschwindigkeit 7.59 km/s
Subsatellitenpunkt 39.44°N, 10.81°W
Startdatum 12. Feb. 2023
Alter 2.7 years
Typ internet

Technische Details

Klassifizierung Payload
Masse 305.00 kg
Trockenmasse 290.00 kg
Gesamtmasse 305.00 kg
Länge 0.20 m
Durchmesser 2.80 m
Spannweite 9.00 m
Form Box + pan
Hersteller SPXS
Bus-Typ Starlink
Phasenstatus In Orbit
Besitzer/Staat SPXS/US

Große Konstellationen

Loading constellations...